Weather History for Cairo, IL

Change the Weather History Date:

Wednesday, May 1, 2013

  Actual Average Record
Temperature  
Mean Temperature 70 °F -  
Max Temperature 86 °F 73 °F 90 °F (1959)
Min Temperature 56 °F 54 °F 36 °F (1988)
Cooling Degree Days 6    
Growing Degree Days 20 (Base 50)    
Moisture  
Dew Point 59 °F    
Average Humidity 71    
Maximum Humidity 92    
Minimum Humidity 38    
Precipitation  
Precipitation 0.55 in - - ()
Sea Level Pressure  
Sea Level Pressure 30.05 in    
Wind  
Wind Speed 3 mph (ESE)    
Max Wind Speed 12 mph    
Max Gust Speed 40 mph    
Visibility 9 miles    
Events Fog , Rain    
Averages and records for this station are not official NWS values.
T = Trace of Precipitation, MM = Missing Value Source: NWS Daily Summary

Daily Weather History Graph

Daily Weather History Graph

Search for Another Location

Airport:

Trip Planner

Search our weather history database for the weather conditions in past years. The results will help you decide how hot, cold, wet, or windy it might be!

Date:

Astronomy

May. 01, 2013 Rise Set
Actual Time 6:02 AM CDT 7:46 PM CDT
Civil Twilight 5:34 AM CDT 8:14 PM CDT
Nautical Twilight 5:00 AM CDT 8:48 PM CDT
Astronomical Twilight 4:24 AM CDT 9:24 PM CDT
Moon 12:55 AM CDT (5/1) 11:40 AM CDT (5/1)
Length of Visible Light 14h 40m
Length of Day
13h 44m
Waning Gibbous, 59% of the Moon is Illuminated
May 1
Waning Gibbous
May 2
Last Quarter
May 9
New
May 17
First Quarter
May 24
Full

Hourly Weather History & Observations

Time (CDT) Temp. Heat Index Dew Point Humidity Pressure Visibility Wind Dir Wind Speed Gust Speed Precip Events Conditions
12:15 AM 66.6 °F - 54.3 °F 65% 29.99 in 10.0 mi ESE 4.6 mph - N/A   Clear
12:35 AM 65.5 °F - 54.5 °F 68% 29.99 in 10.0 mi ESE 4.6 mph - N/A   Clear
12:55 AM 64.6 °F - 54.0 °F 68% 29.98 in 10.0 mi SE 3.5 mph - N/A   Clear
1:15 AM 63.7 °F - 53.6 °F 70% 29.98 in 10.0 mi Calm Calm - N/A   Clear
1:35 AM 62.6 °F - 53.8 °F 73% 29.99 in 10.0 mi Calm Calm - N/A   Clear
1:55 AM 60.6 °F - 54.1 °F 79% 29.98 in 10.0 mi Calm Calm - N/A   Clear
2:15 AM 60.4 °F - 54.5 °F 81% 29.99 in 10.0 mi Calm Calm - N/A   Clear
2:35 AM 59.9 °F - 54.7 °F 83% 29.99 in 10.0 mi Calm Calm - N/A   Clear
2:55 AM 59.5 °F - 54.5 °F 83% 29.99 in 10.0 mi Calm Calm - N/A   Clear
3:15 AM 58.8 °F - 54.1 °F 84% 30.00 in 10.0 mi Calm Calm - N/A   Clear
3:35 AM 58.5 °F - 54.1 °F 86% 30.00 in 10.0 mi Calm Calm - N/A   Clear
3:55 AM 57.6 °F - 53.4 °F 86% 30.00 in 10.0 mi NNE 4.6 mph - N/A   Clear
4:15 AM 57.9 °F - 53.8 °F 86% 30.00 in 10.0 mi Calm Calm - N/A   Clear
4:35 AM 57.6 °F - 53.2 °F 85% 30.00 in 10.0 mi NE 4.6 mph - N/A   Clear
4:55 AM 57.9 °F - 53.4 °F 85% 30.01 in 10.0 mi NE 3.5 mph - N/A   Clear
5:15 AM 57.7 °F - 53.6 °F 86% 30.01 in 10.0 mi Calm Calm - N/A   Clear
5:35 AM 57.6 °F - 53.6 °F 87% 30.02 in 10.0 mi NNE 3.5 mph - N/A   Clear
5:55 AM 56.8 °F - 52.9 °F 87% 30.03 in 10.0 mi Calm Calm - N/A   Scattered Clouds
6:15 AM 57.9 °F - 54.1 °F 87% 30.03 in 10.0 mi NE 3.5 mph - N/A   Mostly Cloudy
6:35 AM 58.6 °F - 54.7 °F 87% 30.04 in 10.0 mi NE 3.5 mph - N/A   Scattered Clouds
6:55 AM 59.9 °F - 55.8 °F 86% 30.05 in 10.0 mi Calm Calm - N/A   Clear
7:15 AM 61.3 °F - 56.8 °F 85% 30.05 in 10.0 mi ENE 3.5 mph - N/A   Clear
7:35 AM 63.3 °F - 58.3 °F 84% 30.06 in 10.0 mi Calm Calm - N/A   Clear
7:55 AM 66.2 °F - 59.2 °F 78% 30.06 in 10.0 mi NE 3.5 mph - N/A   Clear
8:15 AM 68.7 °F - 58.8 °F 71% 30.06 in 10.0 mi ESE 5.8 mph - N/A   Clear
8:35 AM 71.1 °F - 58.3 °F 64% 30.07 in 10.0 mi ESE 5.8 mph - N/A   Clear
8:55 AM 71.6 °F - 57.6 °F 61% 30.07 in 10.0 mi ESE 6.9 mph - N/A   Scattered Clouds
9:15 AM 72.0 °F - 57.7 °F 61% 30.07 in 10.0 mi ESE 5.8 mph - N/A   Scattered Clouds
9:35 AM 74.1 °F - 59.0 °F 59% 30.07 in 10.0 mi East 5.8 mph - N/A   Clear
9:55 AM 75.2 °F - 59.2 °F 57% 30.07 in 10.0 mi SSE 4.6 mph - N/A   Clear
10:15 AM 76.3 °F - 60.1 °F 57% 30.08 in 10.0 mi SE 5.8 mph - N/A   Clear
10:35 AM 76.5 °F - 60.8 °F 58% 30.08 in 10.0 mi SE 6.9 mph - N/A   Clear
10:55 AM 77.7 °F - 61.7 °F 58% 30.08 in 10.0 mi ESE 4.6 mph - N/A   Clear
11:15 AM 79.9 °F - 61.9 °F 54% 30.09 in 10.0 mi ESE 6.9 mph - N/A   Clear
11:35 AM 80.1 °F 81.2 °F 62.2 °F 54% 30.09 in 10.0 mi ESE 5.8 mph - N/A   Clear
11:55 AM 80.4 °F 81.6 °F 62.4 °F 54% 30.09 in 10.0 mi SSE 8.1 mph - N/A   Clear
12:15 PM 81.1 °F 82.3 °F 62.6 °F 53% 30.09 in 10.0 mi South 6.9 mph - N/A   Clear
12:35 PM 81.5 °F 82.4 °F 61.9 °F 51% 30.09 in 10.0 mi South 6.9 mph - N/A   Clear
12:55 PM 82.4 °F 83.0 °F 61.7 °F 49% 30.08 in 10.0 mi East 3.5 mph - N/A   Clear
1:15 PM 82.8 °F 83.4 °F 61.7 °F 49% 30.08 in 10.0 mi SSE 5.8 mph - N/A   Scattered Clouds
1:35 PM 83.3 °F 83.5 °F 60.4 °F 46% 30.09 in 10.0 mi South 8.1 mph - N/A   Scattered Clouds
1:55 PM 82.9 °F 83.2 °F 60.4 °F 46% 30.08 in 10.0 mi SSW 4.6 mph - N/A   Scattered Clouds
2:15 PM 83.5 °F 83.4 °F 59.4 °F 44% 30.08 in 10.0 mi South 4.6 mph - N/A   Scattered Clouds
2:35 PM 81.9 °F 82.2 °F 59.7 °F 47% 30.08 in 10.0 mi South 5.8 mph - N/A   Mostly Cloudy
2:55 PM 84.2 °F 84.0 °F 59.4 °F 43% 30.07 in 10.0 mi SSE 5.8 mph - N/A   Scattered Clouds
3:15 PM 83.1 °F 83.0 °F 59.4 °F 44% 30.07 in 10.0 mi SSE 4.6 mph - N/A   Scattered Clouds
3:35 PM 83.8 °F 83.6 °F 59.4 °F 43% 30.07 in 10.0 mi South 5.8 mph - N/A   Clear
3:55 PM 83.7 °F 83.3 °F 58.6 °F 42% 30.06 in 10.0 mi SSE 5.8 mph - N/A   Clear
4:15 PM 84.6 °F 84.0 °F 58.6 °F 41% 30.06 in 10.0 mi East 6.9 mph - N/A   Clear
4:35 PM 85.5 °F 84.5 °F 57.0 °F 38% 30.06 in 10.0 mi East 5.8 mph - N/A   Clear
4:55 PM 84.9 °F 84.6 °F 59.5 °F 42% 30.06 in 10.0 mi ENE 11.5 mph - N/A   Scattered Clouds
5:15 PM 71.6 °F - 59.5 °F 66% 30.08 in 0.8 mi ESE 4.6 mph 40.3 mph 0.45 in Rain Heavy Rain
5:35 PM 71.6 °F - 63.0 °F 74% 30.07 in 10.0 mi NE 3.5 mph - 0.55 in Rain Light Rain
5:55 PM 71.8 °F - 64.2 °F 77% 30.05 in 10.0 mi Calm Calm - 0.55 in   Overcast
6:15 PM 70.7 °F - 63.7 °F 78% 30.05 in 10.0 mi Calm Calm - N/A   Scattered Clouds
6:35 PM 70.2 °F - 64.0 °F 81% 30.05 in 10.0 mi Calm Calm - N/A   Clear
6:55 PM 70.5 °F - 65.5 °F 84% 30.05 in 10.0 mi Calm Calm - N/A   Clear
7:15 PM 70.2 °F - 65.5 °F 85% 30.06 in 7.0 mi Calm Calm - N/A   Scattered Clouds
7:35 PM 68.9 °F - 64.6 °F 86% 30.06 in 5.0 mi Calm Calm - N/A   Scattered Clouds
7:55 PM 68.0 °F - 63.9 °F 87% 30.07 in 5.0 mi Calm Calm - N/A   Clear
8:15 PM 67.1 °F - 63.1 °F 87% 30.07 in 7.0 mi Calm Calm - N/A   Clear
8:35 PM 67.1 °F - 63.5 °F 88% 30.08 in 7.0 mi Calm Calm - N/A   Scattered Clouds
8:55 PM 68.0 °F - 64.6 °F 89% 30.08 in 5.0 mi Calm Calm - N/A   Clear
9:35 PM 68.2 °F - 65.1 °F 90% 30.09 in 0.5 mi Calm Calm - N/A Fog Fog
9:55 PM 68.0 °F - 65.3 °F 91% 30.09 in 4.0 mi Calm Calm - N/A   Clear
10:15 PM 67.6 °F - 64.9 °F 91% 30.09 in 7.0 mi Calm Calm - N/A   Clear
10:35 PM 67.1 °F - 64.4 °F 91% 30.08 in 7.0 mi Calm Calm - N/A   Clear
10:55 PM 65.5 °F - 62.8 °F 91% 30.08 in 5.0 mi Calm Calm - N/A   Clear
11:15 PM 65.3 °F - 62.6 °F 91% 30.07 in 2.0 mi Calm Calm - N/A   Clear
11:35 PM 64.6 °F - 62.1 °F 92% 30.07 in 10.0 mi Calm Calm - N/A   Clear
11:55 PM 64.4 °F - 61.9 °F 92% 30.08 in 7.0 mi Calm Calm - N/A   Clear